TimeCST,TemperatureF,Dew PointF,Humidity,Sea Level PressureIn,VisibilityMPH,Wind Direction,Wind SpeedMPH,Gust SpeedMPH,PrecipitationIn,Events,Conditions,WindDirDegrees,DateUTC
12:15 AM,24.8,24.4,99,29.92,4.0,NE,8.1,-,N/A,,Clear,40,2012-12-24 06:15:00
12:35 AM,24.8,24.6,99,29.91,3.0,ENE,5.8,-,N/A,,Clear,70,2012-12-24 06:35:00
12:55 AM,23.7,23.5,99,29.90,3.0,ENE,5.8,-,N/A,,Clear,60,2012-12-24 06:55:00
1:15 AM,23.0,23.0,100,29.89,3.0,ENE,4.6,-,N/A,,Clear,70,2012-12-24 07:15:00
1:35 AM,23.0,23.0,100,29.88,3.0,NE,5.8,-,N/A,,Clear,50,2012-12-24 07:35:00
1:55 AM,23.0,23.0,100,29.89,3.0,North,3.5,-,N/A,,Scattered Clouds,10,2012-12-24 07:55:00
2:15 AM,23.9,23.9,100,29.89,3.0,North,3.5,-,N/A,,Scattered Clouds,10,2012-12-24 08:15:00
2:35 AM,23.5,23.5,100,29.88,2.5,NNE,3.5,-,N/A,,Scattered Clouds,20,2012-12-24 08:35:00
2:55 AM,23.4,23.4,100,29.89,3.0,NNW,5.8,-,N/A,,Mostly Cloudy,340,2012-12-24 08:55:00
3:15 AM,24.8,24.8,100,29.89,3.0,NNW,8.1,-,N/A,,Overcast,340,2012-12-24 09:15:00
3:35 AM,24.6,24.6,100,29.90,3.0,NNW,12.7,-,N/A,,Overcast,330,2012-12-24 09:35:00
3:55 AM,25.3,25.3,100,29.90,3.0,NNW,11.5,-,N/A,,Overcast,330,2012-12-24 09:55:00
4:15 AM,25.7,25.5,99,29.89,4.0,NNW,9.2,-,N/A,,Overcast,340,2012-12-24 10:15:00
4:35 AM,25.7,25.5,99,29.89,4.0,NNW,10.4,-,N/A,,Overcast,330,2012-12-24 10:35:00
4:55 AM,26.2,25.9,99,29.90,4.0,North,8.1,-,N/A,,Overcast,360,2012-12-24 10:55:00
5:15 AM,26.6,26.1,98,29.90,4.0,North,6.9,-,N/A,,Overcast,350,2012-12-24 11:15:00
5:35 AM,26.6,25.9,97,29.90,4.0,NNW,6.9,-,N/A,,Overcast,340,2012-12-24 11:35:00
5:55 AM,26.6,26.6,100,29.90,4.0,NNW,9.2,-,N/A,,Overcast,330,2012-12-24 11:55:00
6:15 AM,26.6,26.1,98,29.90,4.0,NNW,6.9,-,N/A,,Overcast,340,2012-12-24 12:15:00
6:35 AM,26.6,26.2,99,29.90,4.0,NNW,6.9,-,N/A,,Overcast,330,2012-12-24 12:35:00
6:55 AM,26.6,26.2,99,29.92,4.0,NW,8.1,-,N/A,,Overcast,320,2012-12-24 12:55:00
7:15 AM,26.6,26.1,98,29.93,4.0,NW,9.2,-,N/A,,Overcast,310,2012-12-24 13:15:00
7:35 AM,26.6,26.1,98,29.93,3.0,NW,10.4,-,N/A,,Overcast,310,2012-12-24 13:35:00
7:55 AM,27.0,26.2,97,29.94,2.5,NW,12.7,-,N/A,,Overcast,310,2012-12-24 13:55:00
8:15 AM,26.6,26.1,98,29.95,2.5,NW,15.0,-,N/A,,Overcast,310,2012-12-24 14:15:00
8:35 AM,26.6,25.7,96,29.96,2.5,WNW,16.1,-,N/A,,Overcast,300,2012-12-24 14:35:00
8:55 AM,26.2,25.7,98,29.97,1.8,NW,15.0,18.4,N/A,,Overcast,310,2012-12-24 14:55:00
9:15 AM,25.7,25.3,99,29.97,1.2,NW,16.1,-,N/A,,Overcast,310,2012-12-24 15:15:00
9:35 AM,25.0,24.8,99,29.98,1.0,NW,18.4,21.9,N/A,,Overcast,310,2012-12-24 15:35:00
9:55 AM,24.6,24.6,100,29.98,1.0,NW,13.8,-,N/A,,Overcast,310,2012-12-24 15:55:00
10:15 AM,24.3,24.3,100,29.98,1.0,NW,15.0,-,N/A,,Overcast,310,2012-12-24 16:15:00
10:35 AM,24.8,24.8,100,29.98,1.2,NW,15.0,-,N/A,,Overcast,310,2012-12-24 16:35:00
10:55 AM,23.7,23.7,100,29.98,1.5,NW,15.0,-,N/A,,Overcast,320,2012-12-24 16:55:00
11:15 AM,23.5,23.5,100,29.98,1.5,WNW,16.1,-,N/A,,Overcast,300,2012-12-24 17:15:00
11:35 AM,23.7,23.4,99,29.98,2.5,WNW,15.0,-,N/A,,Overcast,300,2012-12-24 17:35:00
11:55 AM,23.5,22.5,96,29.98,3.0,WNW,17.3,-,N/A,,Overcast,300,2012-12-24 17:55:00
12:15 PM,23.0,21.4,94,29.98,2.5,West,18.4,-,N/A,,Overcast,280,2012-12-24 18:15:00
12:35 PM,23.0,21.2,93,29.98,3.0,WNW,18.4,-,N/A,,Overcast,300,2012-12-24 18:35:00
12:55 PM,22.1,19.9,91,29.99,4.0,WNW,20.7,-,N/A,,Overcast,300,2012-12-24 18:55:00
1:15 PM,22.3,19.9,91,29.99,4.0,WNW,18.4,-,N/A,,Overcast,290,2012-12-24 19:15:00
1:35 PM,22.6,19.4,87,29.99,4.0,WNW,18.4,-,N/A,,Overcast,300,2012-12-24 19:35:00
1:55 PM,22.8,19.8,88,30.00,4.0,WNW,17.3,23.0,N/A,,Overcast,290,2012-12-24 19:55:00
2:15 PM,22.6,19.6,88,30.00,4.0,West,19.6,-,N/A,,Overcast,280,2012-12-24 20:15:00
2:35 PM,21.9,19.0,89,30.01,4.0,WNW,20.7,-,N/A,,Overcast,290,2012-12-24 20:35:00
2:55 PM,21.2,18.5,89,30.00,5.0,WNW,17.3,-,N/A,,Overcast,290,2012-12-24 20:55:00
3:15 PM,21.4,18.5,89,30.02,4.0,NW,17.3,-,N/A,,Overcast,310,2012-12-24 21:15:00
3:35 PM,21.2,18.0,87,30.03,5.0,NW,12.7,-,N/A,,Overcast,310,2012-12-24 21:35:00
3:55 PM,21.2,17.6,86,30.03,5.0,WNW,17.3,-,N/A,,Overcast,300,2012-12-24 21:55:00
4:15 PM,20.8,17.2,86,30.04,7.0,WNW,16.1,-,N/A,,Overcast,300,2012-12-24 22:15:00
4:35 PM,20.7,16.7,85,30.05,7.0,WNW,15.0,-,N/A,,Overcast,300,2012-12-24 22:35:00
4:55 PM,20.3,16.7,86,30.06,7.0,WNW,13.8,-,N/A,,Overcast,300,2012-12-24 22:55:00
5:15 PM,20.3,16.7,86,30.07,7.0,WNW,13.8,-,N/A,,Overcast,290,2012-12-24 23:15:00
5:35 PM,20.3,16.9,87,30.08,7.0,WNW,12.7,-,N/A,,Overcast,290,2012-12-24 23:35:00
5:55 PM,20.1,16.5,86,30.08,10.0,WNW,11.5,-,N/A,,Overcast,290,2012-12-24 23:55:00
6:15 PM,20.1,16.2,85,30.10,10.0,WNW,13.8,-,N/A,,Overcast,290,2012-12-25 00:15:00
6:35 PM,20.1,16.5,86,30.11,10.0,WNW,13.8,-,N/A,,Overcast,290,2012-12-25 00:35:00
6:55 PM,20.3,16.5,85,30.12,10.0,WNW,16.1,19.6,N/A,,Overcast,300,2012-12-25 00:55:00
7:15 PM,20.3,16.5,85,30.12,10.0,NW,15.0,-,N/A,,Overcast,310,2012-12-25 01:15:00
7:35 PM,20.3,16.7,86,30.12,10.0,NW,12.7,-,N/A,,Overcast,310,2012-12-25 01:35:00
7:55 PM,21.2,17.6,86,30.12,10.0,NW,12.7,-,N/A,,Overcast,310,2012-12-25 01:55:00
8:15 PM,20.7,17.1,86,30.13,10.0,WNW,13.8,-,N/A,,Overcast,300,2012-12-25 02:15:00
8:35 PM,20.8,17.4,87,30.13,10.0,WNW,11.5,-,N/A,,Overcast,300,2012-12-25 02:35:00
8:55 PM,20.8,17.6,87,30.13,10.0,WNW,11.5,-,N/A,,Overcast,300,2012-12-25 02:55:00
9:15 PM,21.0,18.0,88,30.13,10.0,NW,10.4,-,N/A,,Overcast,310,2012-12-25 03:15:00
9:35 PM,21.2,18.1,88,30.14,10.0,NW,9.2,-,N/A,,Overcast,310,2012-12-25 03:35:00
9:55 PM,21.2,19.4,93,30.14,10.0,NW,8.1,-,N/A,,Overcast,310,2012-12-25 03:55:00
10:15 PM,21.7,18.7,88,30.14,10.0,NW,8.1,-,N/A,,Overcast,320,2012-12-25 04:15:00
10:35 PM,21.9,19.2,89,30.14,10.0,NNW,9.2,-,N/A,,Overcast,330,2012-12-25 04:35:00
10:55 PM,22.1,19.6,90,30.16,10.0,NW,10.4,-,N/A,,Overcast,320,2012-12-25 04:55:00
11:15 PM,22.5,20.3,91,30.16,10.0,NNW,10.4,-,N/A,,Overcast,330,2012-12-25 05:15:00
11:35 PM,22.6,20.7,92,30.15,10.0,North,10.4,-,N/A,,Overcast,350,2012-12-25 05:35:00
11:55 PM,23.0,21.0,92,30.15,7.0,North,10.4,-,N/A,,Overcast,350,2012-12-25 05:55:00